Regional Weather Roundup
Issued by NWS

Home | Current Version | Previous Version | Graphics & Text | Print | Product List | Glossary On
Versions: 1 2 3 4 5 6 7 8 9 10 11 12 13 14 15 16 17 18 19 20 21 22 23 24 25 26 27 28 29 30 31 32 33 34 35 36 37 38 39 40 41 42 43 44 45 46 47 48 49 50
947
ASUS43 KFSD 040010
RWRSD

WEATHER ROUNDUP FOR SOUTH DAKOTA
NATIONAL WEATHER SERVICE SIOUX FALLS SD
600 PM CST SAT DEC 03 2016

NOTE: "FAIR" INDICATES FEW OR NO CLOUDS BELOW 12,000 FEET WITH NO
SIGNIFICANT WEATHER AND/OR OBSTRUCTIONS TO VISIBILITY.


SDZ001>005-009-010-012>017-040100-
NORTHWEST AND NORTH CENTRAL SOUTH DAKOTA

CITY           SKY/WX    TMP DP  RH WIND       PRES   REMARKS
BUFFALO          N/A     33  26  75 W7        29.77S WCI  27
FAITH            N/A     27  25  92 SW9       29.87R WCI  18
MOBRIDGE       CLEAR     31  24  75 MISG      29.87R
$$

SDZ012>016-024>037-041>051-057-063-072>074-040100-
SOUTHWEST AND SOUTH CENTRAL SOUTH DAKOTA

CITY           SKY/WX    TMP DP  RH WIND       PRES   REMARKS
RAPID CTY ARPT CLOUDY    36  22  56 CALM      29.91R
PIERRE         CLEAR     32  23  69 W10       29.91R WCI  24
CUSTER         CLOUDY    29  19  66 NW6       29.87S WCI  23
ELLSWORTH AFB  CLOUDY    37  25  61 W6        29.90R
PHILIP         MOCLDY    31  23  72 W6        29.93R WCI  25
PINE RIDGE     CLOUDY    31  22  69 S7        29.93S WCI  24
SPEARFISH      CLOUDY    36  25  64 W13       29.89S
WINNER         FAIR      36  23  59 W5        29.92R
$$

SDZ004>011-016>023-039-040-040100-
NORTHEAST SOUTH DAKOTA

CITY           SKY/WX    TMP DP  RH WIND       PRES   REMARKS
ABERDEEN       CLOUDY    33  31  92 S15       29.96F WCI  23
WATERTOWN      CLOUDY    32  31  96 S18       29.99F WCI  20
BROOKINGS      CLOUDY    33  31  92 S21G26    30.02F WCI  21
SISSETON         N/A     33  31  92 S17       30.00F WCI  22
$$

SDZ017-020-022-023-036>040-048>070-040100-
SOUTHEAST SOUTH DAKOTA

CITY           SKY/WX    TMP DP  RH WIND       PRES   REMARKS
SIOUX FALLS    LGT RAIN  35  34  96 S13G22    30.07F WCI  26
HURON          CLEAR     33  32  96 S16G24    29.96F WCI  23
CHAMBERLAIN    CLOUDY    37  32  82 S3        29.92S
MITCHELL       MOCLDY    35  34  96 S16       29.99F WCI  25
YANKTON        CLOUDY    36  30  80 SE16      30.06F
$$

ABBREVIATIONS USED IN REMARKS
   TC - TEMPERATURE IN CELSIUS
  WCI - WIND CHILL INDEX
   HX - HEAT INDEX
  VSB - VISIBILITY





USA.gov is the U.S. government's official web portal to all federal, state and local government web resources and services.